This demonstration page uses our WeatherBlox Daily Observations layout. Learn more.

Left ArrowRight Arrow

30.21309, -93.2044

Hourly Observations for December 5, 2022

Temp ( °F °C ) Dew Point ( °F °C ) Humidity (%) Winds ( mph kmh ) Pressure ( in mb ) Visibility ( mi km ) Precip ( " mm )
12:15 am 00:15 Cloudy with Mist and Fog 63 17.1 62 16.4 96 96 SSE 3 6 30.09 1019 2 3 0.00 0.00
12:35 am 00:35 Cloudy with Mist and Fog 63 17 61 16.3 96 96 SSE 5 7 30.08 1019 4 6 0.00 0.00
12:55 am 00:55 Cloudy with Mist and Fog 62 16.9 61 16.2 96 96 ESE 6 9 30.07 1018 3 5 0.00 0.00
1:15 am 01:15 Cloudy with Mist and Fog 62 16.8 61 16 95 95 ESE 7 11 30.06 1018 2 2 0.00 0.00
1:35 am 01:35 Cloudy with Fog 62 16.9 61 16.2 96 96 ESE 6 9 30.05 1018 1 1 0.00 0.00
1:55 am 01:55 Cloudy with Fog 63 17.1 62 16.4 96 96 SE 3 6 30.05 1018 0 0 0.00 0.00
2:15 am 02:15 Cloudy with Fog 63 17.4 62 16.7 96 96 SE 5 7 30.05 1018 1 1 0.00 0.00
2:35 am 02:35 Cloudy with Fog 64 17.6 62 16.9 96 96 SE 5 7 30.05 1018 1 1 0.00 0.00
2:55 am 02:55 Cloudy with Fog 64 17.8 63 17.1 96 96 SSE 5 7 30.04 1017 1 1 0.00 0.00
3:15 am 03:15 Cloudy with Fog 64 17.8 63 17.1 96 96 SSE 6 9 30.03 1017 0 0 0.00 0.00
3:35 am 03:35 Cloudy with Fog 64 17.9 63 17.2 96 96 S 3 6 30.03 1017 0 0 0.00 0.00
3:55 am 03:55 Cloudy with Fog 64 17.9 63 17.2 96 96 Calm 30.03 1017 0 0 0.00 0.00
4:15 am 04:15 Cloudy with Fog 64 17.9 63 17.2 96 96 SSE 3 6 30.03 1017 0 0 0.00 0.00
4:35 am 04:35 Cloudy with Fog 64 18 63 17.3 96 96 Calm 30.02 1017 0 0 0.00 0.00
4:55 am 04:55 Cloudy with Fog 64 18 63 17.3 96 96 SE 3 6 30.02 1017 0 0 0.00 0.00
5:15 am 05:15 Cloudy with Fog 65 18.1 63 17.4 96 96 S 3 6 30.02 1017 0 0 0.00 0.00
5:35 am 05:35 Cloudy with Fog 65 18.2 64 17.5 96 96 SSE 5 7 30.02 1017 0 0 0.00 0.00
6:00 am 06:00 Cloudy with Fog 64 18 64 18 100 100 SSE 7 11 30.01 1016 1 1 0.00 0.00
6:45 am 06:45 Mostly Clear with Fog 64 18 64 18 100 100 SSE 7 11 30.02 1017 0 0 0.00 0.00
7:49 am 07:49 Partly Cloudy with Fog 66 19 64 18 94 94 S 7 11 30.02 1017 0 0 0.00 0.00
8:49 am 08:49 Cloudy with Fog 68 20 66 19 94 94 S 7 11 30.03 1017 1 1 0.00 0.00
9:50 am 09:50 Mostly Cloudy 70 21 70 21 100 100 SSE 14 22 30.03 1017 7 11 0.00 0.00
10:55 am 10:55 Mostly Cloudy 70 21 70 21 100 100 SSW 16 26 30.02 1017 7 11 0.00 0.00
11:45 am 11:45 Mostly Cloudy 77 25 70 21 79 79 SSW 16 26 30.00 1016 10 16 0.00 0.00
12:55 pm 12:55 Mostly Cloudy 79 26 68 20 70 70 SSW 21 33 29.97 1015 10 16 0.00 0.00
1:48 pm 13:48 Mostly Cloudy 77 25 68 20 74 74 SW 15 24 29.96 1015 10 16 0.00 0.00
2:45 pm 14:45 Mostly Cloudy 77 25 68 20 74 74 SSW 18 30 29.94 1014 10 16 0.00 0.00
3:55 pm 15:55 Mostly Cloudy 75 24 68 20 78 78 SSW 16 26 29.93 1014 10 16 0.00 0.00
4:50 pm 16:50 Partly Cloudy 73 23 68 20 83 83 SSW 14 22 29.94 1014 10 16 0.00 0.00
5:55 pm 17:55 Clear 72 22 68 20 88 88 SSW 6 9 29.95 1014 10 16 0.00 0.00
6:50 pm 18:50 Mostly Cloudy 70 21 68 20 94 94 S 8 13 29.96 1015 10 16 0.00 0.00
7:49 pm 19:49 Partly Cloudy 68 20 66 19 94 94 S 7 11 29.96 1015 10 16 0.00 0.00
8:54 pm 20:54 Clear 68 20 66 19 94 94 S 6 9 29.96 1015 10 16 0.00 0.00
9:55 pm 21:55 Clear 70 21 68 20 94 94 S 5 7 29.97 1015 10 16 0.00 0.00
10:15 pm 22:15 Cloudy 69 20.8 68 19.9 95 95 S 6 9 29.97 1015 10 16 0.00 0.00
10:35 pm 22:35 Cloudy 70 20.9 68 20 95 95 S 7 11 29.96 1015 10 16 0.00 0.00
10:55 pm 22:55 Cloudy 69 20.6 67 19.7 95 95 S 8 13 29.96 1015 7 11 0.00 0.00
11:15 pm 23:15 Cloudy with Mist and Fog 69 20.4 67 19.6 95 95 S 6 9 29.97 1015 7 11 0.00 0.00
11:35 pm 23:35 Cloudy 69 20.7 68 19.9 95 95 S 6 9 29.97 1015 10 16 0.00 0.00
11:55 pm 23:55 Mostly Cloudy with Mist and Fog 68 20 66 19 94 94 S 7 11 29.97 1015 7 11 0.00 0.00

Powered by AerisWeather